Content
SEND FEEDBACK

Daily
Averages
Monthly
Summary
United States of America

ALPINE COUNTY AIRPORT, CALIFORNIA


Home > North America > United States > California
Elevation: 5790 feet     Latitude: 38 42N     Longitude: 119 47W

WEATHER
 
SELECT A DAY
Number of Records: 174,306;   Date Range: 1/1/95 - 7/20/14
 
SHARE

PRINT THIS DATA

[ ← Previous Day ]
WEATHER ALMANAC - JANUARY 23, 2013
[ Next Day → ]
[ °C ]   °F
Weather ElementAverageHighLow
Temperature39.2 °F52 °F (11:53 am)26.1 °F (7:53 am)
Dewpoint16 °F28.9 °F (11:53 pm)3.9 °F (9:53 am)
Humidity44.3 %78 % (11:53 pm)15 % (9:53 am)
Barometer30.10 in30.17 in (8:53 am)30.05 in (1:53 pm)
Wind Speed3.7 mph11.5 mph (12:53 pm)
Wind Gust25.3 mph (11:53 am)
Weather ElementAverage
Visibility10 mi
Wind DirectionE (91.3 °)

Weather ElementTotal
Precipitation---
Heating Degree Days26 (Base 65)
Averaged from 23 records on January 23, 2013
WEATHER CONDITIONS BREAKOUT
WIND DIRECTION BREAKOUT
WEATHER BY HOUR - JANUARY 23, 2013
[ °C ]   °F
Local TimeTemperatureDewpointHumidityBarometerVisibilityWind DirectionWind SpeedGust SpeedPrecipitationEventsConditions
1:53 AM30.9 °F17.1 °F57 %30.10 in10.0 miCalmClear
2:53 AM30.9 °F17.1 °F57 %30.12 in10.0 miCalmClear
3:53 AM37.0 °F10.0 °F33 %30.09 in10.0 miSSW (200°)4.6 mphClear
4:53 AM33.1 °F17.1 °F52 %30.10 in10.0 miCalmClear
5:53 AM27.0 °F14.0 °F58 %30.13 in10.0 miCalmClear
6:53 AM27.0 °F14.0 °F58 %30.15 in10.0 miCalmClear
7:53 AM26.1 °F12.9 °F58 %30.16 in10.0 miCalmPartly Cloudy
8:53 AM28.0 °F14.0 °F56 %30.17 in10.0 miCalmMostly Cloudy
9:53 AM50.0 °F3.9 °F15 %30.10 in10.0 miSSW (200°)10.4 mph16.1 mphScattered Clouds
10:53 AM51.1 °F5.0 °F15 %30.10 in10.0 miSW (220°)10.4 mphPartly Cloudy
11:53 AM52.0 °F6.1 °F16 %30.09 in10.0 miVariable5.8 mph25.3 mphClear
12:53 PM52.0 °F10.0 °F19 %30.06 in10.0 miSSW (210°)11.5 mph24.2 mphClear
1:53 PM50.0 °F12.0 °F22 %30.05 in10.0 miSouth (190°)8.1 mph20.7 mphClear
2:53 PM48.9 °F10.9 °F22 %30.06 in10.0 miSouth (190°)8.1 mphClear
3:53 PM46.9 °F12.9 °F25 %30.05 in10.0 miSW (220°)3.5 mphClear
4:53 PM44.1 °F16.0 °F32 %30.06 in10.0 miSSW (210°)5.8 mphClear
5:53 PM39.0 °F21.0 °F49 %30.10 in10.0 miCalmClear
6:53 PM43.0 °F19.9 °F40 %30.12 in10.0 miSSW (200°)6.9 mphOvercast
7:53 PM41.0 °F23.0 °F49 %30.12 in10.0 miSSW (210°)5.8 mphMostly Cloudy
8:53 PM37.9 °F26.1 °F62 %30.14 in10.0 miNE (50°)3.5 mphOvercast
9:53 PM36.0 °F27.0 °F70 %30.08 in10.0 miCalmMostly Cloudy
10:53 PM35.1 °F28.0 °F76 %30.09 in10.0 miCalm0.00 inOvercast
11:53 PM35.1 °F28.9 °F78 %30.07 in10.0 miCalm0.00 inOvercast
Hourly data recorded from KTVL, located miles away from Alpine County Airport, California







STORIES FROM OUR PARTNERS